CW4525 Weather Reports


Display with metric or nautical units.
time (UTC)temp
F
wind
direction
speed
MPH
gust
MPH
rain 1hr
in
rain 24hr
in
rain mn
in
humidity
%
barometer
mb
20260904110048 59 333 0.0 0.0 0.00 0.01 0.01 95 1006.3
20260904104545 60 333 0.0 0.0 0.01 0.01 0.01 95 1006.1
20260904103044 60 333 0.0 0.0 0.01 0.01 0.01 95 1006.0
20260904101542 60 333 0.0 0.0 0.01 0.01 0.01 95 1005.9
20260904100044 60 333 0.0 0.0 0.01 0.01 0.01 95 1005.9
20260904094552 61 333 0.0 0.0 0.00 0.01 0.00 95 1005.9
20260904093040 61 333 0.0 0.0 0.00 0.01 0.00 95 1005.9
20260904091539 61 333 0.0 0.0 0.00 0.01 0.00 95 1005.9
20260904090048 60 333 0.0 0.0 0.00 0.01 0.00 95 1005.9
20260904084537 61 333 0.0 0.0 0.00 0.01 0.00 95 1005.9
20260904083104 61 333 0.0 0.0 0.00 0.01 0.00 95 1005.9
20260904081533 62 333 0.0 0.0 0.00 0.01 0.00 95 1006.0
20260904080029 62 333 0.0 0.0 0.00 0.02 0.00 95 1006.2
20260904074531 62 333 0.0 0.0 0.00 0.02 0.00 95 1006.3
20260904073027 62 333 0.0 0.0 0.00 0.02 0.00 95 1006.2
20260904071526 62 333 0.0 0.0 0.00 0.02 0.00 95 1006.4
20260904070046 62 333 0.0 0.0 0.00 0.02 0.00 95 1006.5
20260904064524 62 333 0.0 1.0 0.00 0.02 0.00 95 1006.5
20260904063028 62 51 0.0 0.0 0.00 0.02 0.00 95 1006.5
20260904061526 63 53 0.0 0.0 0.00 0.02 0.00 94 1006.7
20260904060018 63 112 0.0 0.0 0.00 0.02 0.00 94 1007.0
20260904054515 64 112 0.0 0.0 0.00 0.02 0.00 95 1007.3
20260904053033 64 112 0.0 0.0 0.00 0.02 0.00 94 1007.5
20260904051522 65 112 0.0 0.0 0.00 0.02 0.00 95 1007.5
20260904050009 65 112 0.0 0.0 0.00 0.02 0.00 95 1007.5
20260904044508 65 114 0.0 0.0 0.00 0.02 0.00 95 1007.5
20260904043007 66 113 0.0 0.0 0.00 0.02 0.00 95 1007.5
20260904041505 66 113 0.0 0.0 0.00 0.02 0.00 95 1007.7
20260904040004 66 114 0.0 0.0 0.00 0.02 0.02 94 1007.9
20260904034503 66 114 0.0 0.0 0.00 0.02 0.02 94 1007.9
20260904033003 67 114 0.0 0.0 0.00 0.02 0.02 94 1008.0
20260904031502 67 111 0.0 0.0 0.00 0.02 0.02 94 1008.0
20260904030002 67 111 0.0 0.0 0.00 0.02 0.02 94 1008.3
20260904024502 67 111 0.0 0.0 0.00 0.02 0.02 94 1008.1
20260904023100 67 113 0.0 0.0 0.00 0.02 0.02 94 1008.1
20260904023001 67 113 0.0 0.0 0.00 0.02 0.02 94 1008.1
20260904021601 67 112 1.0 4.0 0.00 0.02 0.02 93 1008.2
20260904020100 68 123 2.0 5.0 0.00 0.02 0.02 93 1008.3
20260904014608 68 111 1.0 7.0 0.00 0.02 0.02 93 1008.6
20260904013059 68 148 4.0 8.0 0.00 0.02 0.02 93 1008.5
20260904011559 68 107 3.0 6.0 0.00 0.02 0.02 93 1008.5
20260904010057 68 131 0.0 7.0 0.00 0.02 0.02 93 1008.6
20260904004557 68 126 2.0 7.0 0.00 0.02 0.02 92 1008.1
20260904003057 68 123 0.0 6.0 0.00 0.02 0.02 92 1008.1
20260904001556 68 128 4.0 8.0 0.00 0.02 0.02 91 1007.9
20260904000107 69 117 3.0 8.0 0.00 0.02 0.02 91 1007.6
20260903234555 69 116 4.0 7.0 0.00 0.02 0.02 90 1007.7
20260903233054 70 121 3.0 8.0 0.00 0.02 0.02 89 1007.5
20260903231556 71 114 2.0 6.0 0.00 0.02 0.02 86 1007.6
20260903230054 72 117 1.0 5.0 0.00 0.02 0.02 84 1007.8
20260903224552 73 110 2.0 6.0 0.00 0.02 0.02 83 1007.8
20260903223054 74 126 2.0 8.0 0.00 0.02 0.02 81 1007.7
20260903221553 75 116 4.0 7.0 0.00 0.02 0.02 79 1008.1
20260903220049 76 98 2.0 7.0 0.00 0.02 0.02 79 1008.1
20260903214605 77 134 4.0 7.0 0.00 0.02 0.02 78 1008.1
20260903213049 77 138 1.0 5.0 0.00 0.02 0.02 79 1008.1
20260903211545 76 187 1.0 5.0 0.00 0.02 0.02 80 1008.1
20260903210045 75 92 0.0 6.0 0.00 0.02 0.02 80 1008.1
20260903204536 73 140 0.0 0.0 0.00 0.02 0.02 84 1008.1
20260903203034 73 140 0.0 0.0 0.00 0.02 0.02 83 1008.2
20260903201537 73 141 0.0 2.0 0.00 0.02 0.02 83 1008.2
20260903200030 72 225 0.0 0.0 0.00 0.02 0.02 84 1008.6
20260903194527 71 225 0.0 5.0 0.00 0.02 0.02 86 1008.6
20260903193025 70 316 0.0 0.0 0.00 0.02 0.02 86 1008.8
20260903191523 70 289 1.0 5.0 0.00 0.02 0.02 85 1009.1
20260903190023 70 312 0.0 4.0 0.00 0.02 0.02 86 1009.1
20260903184521 70 317 0.0 7.0 0.00 0.02 0.02 86 1008.9
20260903183018 69 311 0.0 5.0 0.00 0.02 0.02 88 1009.1
20260903181514 67 346 2.0 6.0 0.00 0.02 0.02 90 1009.4
20260903180018 66 338 0.0 5.0 0.00 0.02 0.02 91 1009.6
20260903174509 66 330 0.0 2.0 0.00 0.02 0.02 92 1009.7
20260903173007 65 336 0.0 6.0 0.00 0.02 0.02 92 1009.8
20260903171509 65 334 0.0 6.0 0.00 0.02 0.02 92 1010.0
20260903170004 65 340 1.0 4.0 0.00 0.02 0.02 93 1009.9
20260903164503 64 340 2.0 6.0 0.00 0.02 0.02 92 1009.8
20260903163002 64 9 0.0 4.0 0.00 0.02 0.02 93 1010.0
20260903161502 64 309 0.0 7.0 0.00 0.02 0.02 93 1009.9
20260903160059 64 345 1.0 6.0 0.00 0.02 0.02 93 1009.9
20260903154601 64 344 1.0 6.0 0.00 0.02 0.02 94 1010.0
20260903153112 63 19 2.0 6.0 0.00 0.02 0.02 94 1010.3
20260903151559 63 5 0.0 5.0 0.00 0.02 0.02 94 1010.5
20260903150104 63 332 0.0 4.0 0.00 0.02 0.02 94 1010.6
20260903144553 63 294 0.0 4.0 0.00 0.02 0.02 94 1010.7
20260903143103 62 32 2.0 5.0 0.00 0.02 0.02 95 1010.5
20260903141549 62 121 0.0 0.0 0.00 0.02 0.02 95 1010.7
20260903140048 62 121 0.0 0.0 0.00 0.02 0.02 95 1010.9
20260903134549 61 121 0.0 0.0 0.00 0.02 0.02 95 1010.9
20260903133045 61 122 0.0 0.0 0.00 0.02 0.02 95 1010.8
20260903131544 61 121 0.0 0.0 0.00 0.02 0.02 95 1010.8
20260903130044 61 122 1.0 2.0 0.00 0.02 0.02 95 1010.9
20260903124543 61 121 0.0 0.0 0.00 0.02 0.02 95 1010.9
20260903123041 60 122 1.0 4.0 0.00 0.02 0.02 95 1011.1
20260903121540 60 121 0.0 4.0 0.00 0.02 0.02 95 1011.4
20260903120044 60 121 0.0 6.0 0.00 0.02 0.02 95 1011.4
20260903114537 60 120 0.0 4.0 0.00 0.02 0.02 95 1011.4
20260903113035 60 120 1.0 5.0 0.00 0.02 0.02 95 1011.6
20260903111536 59 117 1.0 5.0 0.00 0.02 0.02 94 1011.8